CAPE
0 0 0 0 0 0 0 0 0 0 0 0 0 0 0 23 551 929 849 698 1495 1951 1130 996 823 361 300 562 431 204 0 0 0 12 28 221 301 466 407 415 323 49 0 0 0 0 0 0 0
0 0 0 0 0 0 0 0 0 0 0 0 0 0 0 372 1060 1126 1412 823 766 2270 1155 1103 903 468 319 729 684 235 0 0 0 0 11 288 305 451 478 369 270 52 0 0 0 0 0 0 0
0 0 0 0 0 0 0 0 0 0 0 0 0 0 0 93 0 9 668 752 872 2439 1559 1163 694 363 304 494 863 207 0 0 0 0 133 217 292 354 284 271 195 70 28 0 0 0 0 0 0
0 0 0 0 0 0 0 0 0 0 0 0 0 0 0 0 0 0 6 851 1098 2275 2162 1251 441 322 429 548 736 417 124 45 0 0 179 358 273 259 195 88 93 107 51 0 0 0 0 0 0
0 0 0 0 0 0 0 0 0 0 0 0 0 0 0 0 0 0 0 222 1103 1601 2048 1436 794 766 516 670 614 511 243 80 0 0 124 284 387 171 84 42 125 115 0 0 0 0 0 0 0
0 0 0 0 0 0 0 0 0 0 0 0 0 0 0 0 0 0 0 0 410 1596 1463 1248 901 468 911 845 885 491 352 127 1 0 33 194 120 73 19 91 150 110 0 0 0 0 0 0 0
0 0 0 0 0 0 0 0 0 0 0 0 0 0 0 0 0 0 0 0 180 1194 1559 1227 820 578 974 1027 1033 777 396 214 31 0 0 77 15 0 0 2 106 26 0 0 0 0 0 0 0
0 0 0 0 0 0 0 0 0 0 0 0 0 0 0 0 0 0 0 0 0 487 1616 1659 1237 791 908 1192 1203 977 599 247 113 8 0 24 0 0 0 0 7 0 0 0 0 0 0 0 0
0 0 0 0 0 0 0 0 0 0 0 0 0 0 0 0 0 0 0 0 0 1535 1502 1491 769 297 279 576 1145 1138 877 504 207 86 64 24 3 4 0 0 2 0 0 0 0 0 0 0 0
0 0 0 0 0 0 0 0 0 0 0 0 0 0 0 0 0 0 0 0 0 282 1410 1348 861 68 51 75 807 994 1020 878 388 266 234 3 0 0 0 2 34 0 0 0 0 0 0 0 0
0 0 0 0 0 0 0 0 0 0 0 0 0 0 0 0 0 0 0 0 0 0 844 1283 1275 363 30 0 712 706 794 706 367 126 233 4 0 0 0 55 0 0 0 0 0 0 0 0 0
0 0 0 0 0 0 0 0 0 0 0 0 0 0 0 0 0 0 0 0 0 0 0 1538 1502 907 181 0 711 516 581 452 269 151 229 0 0 0 0 105 16 0 0 0 0 0 0 72 397
0 0 0 0 0 0 0 0 0 0 0 0 0 0 0 0 0 0 0 0 0 0 0 516 1689 1303 406 106 273 183 137 119 72 55 225 0 0 57 15 109 0 0 0 0 0 0 307 641 718
0 0 0 0 0 0 0 0 0 0 0 0 0 0 0 0 0 0 0 0 0 0 0 0 1905 1450 850 399 381 137 20 16 38 42 258 3 26 402 246 63 0 0 0 0 0 87 338 504 420
0 0 0 0 0 0 0 0 0 0 0 0 0 0 0 0 0 0 0 0 0 0 0 0 612 1710 988 721 1106 332 81 34 54 83 209 28 161 501 185 34 0 0 0 0 214 921 827 639 339
0 0 0 0 0 0 0 0 0 0 0 0 0 0 0 0 0 0 0 0 0 0 0 0 0 1966 1316 797 731 880 342 160 40 173 348 128 412 479 222 16 0 0 1 86 474 661 498 268 247
0 0 0 0 0 0 0 0 0 0 0 0 0 0 0 0 0 0 0 0 0 0 0 0 0 1260 1476 1095 817 1105 729 216 348 320 715 368 473 501 150 0 0 43 198 472 757 427 246 301 161
0 0 0 0 0 0 0 0 0 0 0 4 9 6 3 0 0 0 0 0 0 0 0 0 0 0 1370 1319 1104 1073 998 706 649 380 667 597 385 502 100 2 0 355 264 550 365 251 246 169 243
0 0 0 0 0 0 0 0 0 8 48 36 60 31 28 12 7 17 16 7 0 0 0 0 0 0 5 1198 1288 938 864 925 542 442 525 692 435 498 168 0 226 483 429 316 476 336 495 224 159
0 0 0 0 0 0 0 0 12 61 78 57 10 0 0 0 0 0 0 0 73 1 0 0 0 0 60 1270 1503 1252 1031 946 680 666 430 748 472 440 130 32 904 686 572 576 568 534 517 244 83
0 0 0 0 0 0 0 2 71 170 59 56 40 26 8 8 24 14 26 12 0 48 3 0 0 0 133 1028 1804 1565 1231 1008 892 706 648 675 495 389 64 208 718 434 738 694 964 763 522 376 43
0 0 0 0 0 0 0 37 226 98 90 30 0 0 0 0 2 8 1 0 65 0 72 3 0 0 46 1117 1677 1735 1281 990 948 726 489 672 539 378 39 160 840 866 869 940 906 923 733 367 93
0 0 0 0 0 0 3 199 234 105 22 0 0 0 0 0 0 0 0 16 37 58 57 7 6 0 47 1028 1465 1651 1580 1288 1072 634 458 537 453 306 67 200 1182 1281 681 945 982 645 326 208 80
0 0 1 0 0 8 87 0 1 39 0 0 0 0 0 0 0 0 36 88 25 26 48 13 10 0 0 1131 1517 1491 1552 1402 918 695 526 598 497 318 111 247 1214 1266 938 583 372 135 4 0 0
0 16 0 0 0 4 0 0 97 17 1 1 0 0 0 0 2 15 15 0 0 0 7 45 83 2 0 1098 1637 1744 1410 1509 957 819 593 714 465 408 132 917 1130 971 533 173 33 0 0 0 0
0 62 0 0 0 0 0 70 22 8 3 0 0 0 0 0 1 14 1 0 0 1 0 10 31 76 10 1297 1545 1735 1677 1291 931 922 815 795 545 356 838 993 996 363 29 0 0 0 0 0 0
8 32 15 0 0 0 0 6 133 0 0 0 0 0 0 1 4 5 56 3 0 0 0 0 163 143 528 1246 1816 1550 1542 1154 855 936 1011 1084 729 622 1137 835 161 6 0 0 0 0 0 0 0
22 53 49 44 0 1 0 0 31 0 2 0 0 0 0 1 2 0 2 0 0 2 21 124 290 213 1033 1489 1830 1380 1372 1167 944 810 901 960 883 1009 474 56 0 0 0 0 0 0 0 0 0
47 25 46 29 29 27 0 0 39 7 0 0 0 0 2 2 2 2 111 272 177 212 183 15 363 376 1721 1654 1667 1177 1043 945 803 841 898 762 694 268 21 0 0 0 0 0 0 0 0 0 0
67 52 25 33 3 25 6 0 7 3 0 0 0 1 1 2 2 2 160 309 515 225 76 800 194 368 1290 1680 1263 1262 358 865 665 591 496 352 21 0 0 0 0 0 0 0 0 0 0 0 0
CIN
-0 -0 -0 -0 -0 -0 -0 -0 -0 -0 -0 -0 -0 -0 -0 -58 -18 -43 -109 -143 -60 -208 -340 -352 -362 -484 -453 -369 -394 -448 -0 -0 -0 -561 -524 -286 -265 -219 -260 -240 -247 -443 -0 -0 -0 -0 -0 -0 -0
-0 -0 -0 -0 -0 -0 -0 -0 -0 -0 -0 -0 -0 -0 -0 -17 -29 -76 -123 -170 -137 -187 -310 -338 -362 -433 -445 -336 -335 -424 -0 -0 -0 -0 -520 -246 -210 -175 -193 -240 -253 -406 -0 -0 -0 -0 -0 -0 -0
-0 -0 -0 -0 -0 -0 -0 -0 -0 -0 -0 -0 -0 -0 -0 -43 -0 -96 -192 -173 -133 -156 -248 -338 -413 -451 -430 -348 -281 -423 -0 -0 -0 -55 -384 -301 -204 -176 -197 -217 -255 -335 -415 -0 -0 -0 -0 -0 -0
-0 -0 -0 -0 -0 -0 -0 -0 -0 -0 -0 -0 -0 -0 -0 -0 -0 -0 -168 -142 -113 -38 -168 -323 -445 -453 -380 -330 -292 -355 -399 -431 -0 -0 -324 -212 -245 -189 -205 -298 -320 -276 -359 -0 -0 -0 -0 -0 -0
-0 -0 -0 -0 -0 -0 -0 -0 -0 -0 -0 -0 -0 -0 -0 -0 -0 -0 -0 -175 -76 -44 -149 -267 -339 -341 -363 -292 -293 -312 -345 -385 -0 -0 -325 -210 -168 -254 -303 -326 -259 -275 -0 -0 -0 -0 -0 -0 -0
-0 -0 -0 -0 -0 -0 -0 -0 -0 -0 -0 -0 -0 -0 -0 -0 -0 -0 -0 -0 -99 -41 -217 -269 -325 -377 -267 -257 -215 -284 -313 -338 -135 -0 -387 -246 -254 -260 -332 -238 -224 -275 -0 -0 -0 -0 -0 -0 -0
-0 -0 -0 -0 -0 -0 -0 -0 -0 -0 -0 -0 -0 -0 -0 -0 -0 -0 -0 -0 -155 -15 -157 -261 -318 -360 -237 -210 -180 -207 -272 -289 -358 -0 -0 -322 -369 -108 -0 -18 -231 -314 -0 -0 -0 -0 -0 -0 -0
-0 -0 -0 -0 -0 -0 -0 -0 -0 -0 -0 -0 -0 -0 -0 -0 -0 -0 -0 -0 -0 -36 -28 -164 -219 -301 -248 -143 -136 -144 -201 -260 -279 -110 -0 -349 -0 -0 -0 -0 -135 -0 -0 -0 -0 -0 -0 -0 -0
-0 -0 -0 -0 -0 -0 -0 -0 -0 -0 -0 -0 -0 -0 -0 -0 -0 -0 -0 -0 -0 -12 -5 -50 -237 -358 -329 -231 -105 -106 -112 -169 -229 -266 -291 -340 -49 -62 -0 -0 -40 -0 -0 -0 -0 -0 -0 -0 -0
-0 -0 -0 -0 -0 -0 -0 -0 -0 -0 -0 -0 -0 -0 -0 -0 -0 -0 -0 -0 -0 -10 -30 -31 -118 -341 -361 -336 -134 -94 -88 -102 -165 -195 -220 -157 -0 -0 -0 -52 -279 -0 -0 -0 -0 -0 -0 -0 -0
-0 -0 -0 -0 -0 -0 -0 -0 -0 -0 -0 -0 -0 -0 -0 -0 -0 -0 -0 -0 -0 -0 -10 -22 -36 -192 -320 -0 -150 -121 -93 -118 -177 -202 -195 -276 -0 -0 -0 -267 -0 -0 -0 -0 -0 -0 -0 -0 -0
-0 -0 -0 -0 -0 -0 -0 -0 -0 -0 -0 -0 -0 -0 -0 -0 -0 -0 -0 -0 -0 -0 -0 -23 -33 -57 -227 -20 -151 -146 -135 -147 -196 -209 -183 -0 -0 -0 -0 -216 -311 -0 -0 -0 -0 -0 -0 -51 -29
-0 -0 -0 -0 -0 -0 -0 -0 -0 -0 -0 -0 -0 -0 -0 -0 -0 -0 -0 -0 -0 -0 -0 -6 -26 -48 -143 -182 -214 -226 -245 -237 -273 -276 -170 -0 -0 -96 -77 -159 -0 -0 -0 -0 -0 -0 -73 -16 -13
-0 -0 -0 -0 -0 -0 -0 -0 -0 -0 -0 -0 -0 -0 -0 -0 -0 -0 -0 -0 -0 -0 -0 -0 -8 -37 -67 -69 -115 -236 -317 -350 -298 -299 -158 -144 -195 -70 -101 -179 -0 -0 -0 -0 -0 -125 -58 -30 -27
-0 -0 -0 -0 -0 -0 -0 -0 -0 -0 -0 -0 -0 -0 -0 -0 -0 -0 -0 -0 -0 -0 -0 -0 -17 -23 -38 -42 -10 -139 -239 -256 -256 -224 -179 -218 -102 -43 -134 -166 -0 -0 -0 -0 -75 -26 -22 -22 -49
-0 -0 -0 -0 -0 -0 -0 -0 -0 -0 -0 -0 -0 -0 -0 -0 -0 -0 -0 -0 -0 -0 -0 -0 -0 -11 -27 -68 -24 -15 -84 -121 -238 -126 -96 -130 -63 -63 -114 -195 -0 -0 -46 -148 -43 -42 -40 -70 -73
-0 -0 -0 -0 -0 -0 -0 -0 -0 -0 -0 -0 -0 -0 -0 -0 -0 -0 -0 -0 -0 -0 -0 -0 -0 -13 -47 -24 -55 -5 -4 -92 -65 -39 -13 -74 -50 -85 -146 -0 -0 -51 -110 -50 -11 -73 -87 -77 -128
-0 -0 -0 -0 -0 -0 -0 -0 -0 -0 -0 -90 -115 -70 -74 -0 -0 -0 -0 -0 -0 -0 -0 -0 -0 -0 -3 -44 -40 -18 -3 -7 -4 -12 -8 -51 -54 -72 -174 -223 -0 -81 -67 -14 -56 -115 -131 -107 -106
-0 -0 -0 -0 -0 -0 -0 -0 -0 -115 -27 -37 -49 -77 -92 -122 -92 -85 -136 -166 -0 -0 -0 -0 -0 -0 -24 -12 -26 -24 -17 -4 -8 -17 -2 -38 -51 -52 -132 -0 -119 -79 -27 -48 -77 -83 -67 -81 -193
-0 -0 -0 -0 -0 -0 -0 -0 -77 -9 -16 -16 -55 -0 -0 -0 -0 -0 -0 -0 -87 -30 -0 -0 -0 -0 -44 -4 -11 -25 -43 -10 -9 -4 -16 -42 -54 -41 -159 -246 -15 -46 -30 -37 -71 -62 -28 -59 -243
-0 -0 -0 -0 -0 -0 -0 -3 -3 -6 -43 -79 -124 -185 -171 -96 -150 -136 -174 -99 -0 -119 -146 -0 -0 -0 -33 -7 -2 -15 -16 -19 -4 -4 -11 -45 -73 -106 -219 -134 -26 -53 -16 -26 -20 -40 -26 -12 -262
-0 -0 -0 -0 -0 -0 -0 -25 -3 -47 -47 -132 -0 -0 -0 -0 -164 -47 -8 -33 -100 -17 -71 -257 -0 -0 -28 -2 -3 -5 -19 -23 -3 -8 -17 -85 -88 -133 -238 -129 -11 -29 -9 -11 -21 -8 -4 -20 -117
-0 -0 -0 -0 -0 -0 -21 -8 -3 -8 -140 -0 -0 -0 -0 -0 -0 -0 -0 -95 -95 -109 -65 -152 -234 -0 -17 -7 -6 -5 -5 -20 -28 -16 -21 -97 -125 -182 -247 -116 -4 -10 -8 -9 -7 -27 -27 -65 -63
-0 -0 -3 -0 -0 -6 -11 -0 -11 -56 -0 -0 -0 -0 -0 -0 -0 -0 -56 -21 -47 -47 -71 -128 -117 -0 -0 -6 -3 -9 -9 -11 -13 -8 -10 -90 -113 -169 -235 -96 -2 -9 -8 -34 -74 -125 -135 -0 -0
-0 -5 -0 -0 -0 -7 -0 -0 -79 -70 -2 -2 -0 -0 -0 -0 -2 -3 -91 -0 -0 -0 -3 -30 -94 -51 -0 -7 -2 -5 -16 -3 -16 -8 -9 -45 -132 -142 -219 -5 -3 -14 -44 -140 -199 -0 -0 -0 -0
-0 -9 -3 -0 -0 -0 -0 -20 -34 -29 -38 -0 -0 -0 -1 -0 -30 -4 -18 -0 -0 -95 -0 -86 -16 -64 -38 -5 -8 -3 -15 -18 -11 -9 -6 -32 -102 -107 -4 -5 -5 -79 -243 -0 -0 -0 -0 -0 -0
-2 -6 -4 -0 -0 -0 -19 -22 -32 -0 -0 -0 -0 -0 -0 -0 -1 -66 -87 -254 -0 -0 -0 -0 -2 -31 -13 -2 -2 -5 -21 -21 -14 -10 -11 -2 -24 -7 -4 -3 -153 -275 -0 -0 -0 -0 -0 -0 -0
-14 -8 -5 -5 -1 -2 -0 -0 -7 -0 -2 -1 -0 -0 -0 -0 -0 -0 -37 -0 -0 -68 -42 -27 -1 -8 -5 -2 -3 -13 -21 -15 -11 -10 -3 -10 -6 -10 -41 -238 -0 -0 -0 -0 -0 -0 -0 -0 -0
-8 -28 -3 -3 -2 -3 -0 -0 -5 -7 -0 -0 -0 -0 -0 -0 -0 -0 -92 -116 -125 -100 -44 -37 -2 -3 -2 -17 -21 -25 -11 -31 -13 -15 -9 -26 -21 -137 -365 -0 -0 -0 -0 -0 -0 -0 -0 -0 -0
-2 -9 -2 -2 -6 -3 -17 -0 -10 -7 -0 -0 -0 -0 -0 -0 -0 -0 -102 -94 -20 -12 -16 -41 -62 -44 -16 -3 -59 -12 -35 -16 -13 -20 -17 -61 -224 -0 -0 -0 -0 -0 -0 -0 -0 -0 -0 -0 -0
Wind_Speed
24 23 19 24 18 18 26 27 28 30 20 20 20 19 22 24 19 14 13 15 12 9 9 10 9 7 9 8 7 6 7 7 9 11 11 13 11 11 12 11 11 12 13 15 16 17 18 19 20
24 24 9 22 17 21 24 15 23 30 13 17 19 24 23 15 13 10 15 16 13 8 6 4 5 5 6 4 4 5 5 5 5 8 10 9 9 10 9 10 10 11 12 13 14 16 17 18 19
20 20 19 18 18 18 26 29 23 17 15 19 22 22 23 17 16 16 16 15 15 6 5 1 3 5 5 4 4 6 6 4 4 3 6 8 6 6 7 8 8 9 10 12 13 14 16 17 18
15 13 18 25 31 24 24 31 23 22 19 17 21 24 18 16 16 17 17 16 13 5 5 3 3 3 7 5 5 5 6 5 4 4 3 3 5 3 5 5 6 7 8 9 11 13 15 16 17
12 19 18 23 29 32 36 36 20 23 25 26 19 24 21 14 14 18 18 15 12 11 4 2 1 2 6 6 6 7 7 6 5 4 3 2 1 2 3 4 5 6 7 8 10 12 14 15 16
12 14 21 25 27 25 21 19 21 22 24 26 22 23 18 10 13 15 20 16 17 7 4 3 3 4 4 5 6 7 8 7 6 5 4 3 2 2 3 4 4 5 6 8 9 11 13 14 15
12 19 24 30 32 34 24 20 24 24 26 25 28 26 18 17 11 16 20 22 15 10 4 5 6 5 4 5 6 7 9 8 7 6 5 4 4 3 3 4 5 6 6 7 9 10 12 13 14
13 26 31 32 33 32 29 23 19 26 33 34 29 26 26 19 22 24 25 24 21 12 7 7 8 8 7 6 7 8 9 10 9 8 7 6 5 4 4 5 6 7 7 8 9 10 11 11 11
16 22 25 26 28 28 27 27 22 20 30 30 31 33 32 36 34 32 30 28 25 10 11 10 9 10 11 10 9 8 11 11 10 9 8 7 8 7 6 5 6 8 8 8 8 9 9 7 7
14 17 22 23 26 28 29 29 31 34 36 37 37 37 36 38 36 36 33 32 29 19 16 16 14 11 13 13 11 11 11 12 12 11 10 10 9 7 6 5 4 7 8 9 9 9 7 6 8
17 19 30 27 28 28 30 31 30 33 35 33 36 35 37 38 37 37 35 33 31 31 18 15 16 14 13 15 12 12 13 14 15 14 12 12 11 7 7 7 7 9 9 11 8 9 7 7 7
22 23 27 28 29 31 32 32 34 33 34 33 34 34 34 38 40 39 38 36 34 32 28 16 17 17 17 18 13 13 14 15 16 17 15 15 15 9 9 7 7 7 7 6 5 5 6 8 17
26 28 27 27 30 30 29 31 34 33 32 30 31 32 33 35 36 38 41 40 39 37 32 22 20 19 20 20 17 15 16 16 16 16 15 16 17 11 10 12 7 6 5 5 3 11 9 15 13
29 32 29 29 27 25 26 29 30 30 28 28 27 27 28 31 35 36 37 39 40 40 37 29 21 21 20 24 19 17 16 17 15 14 14 16 18 13 12 15 13 6 8 7 8 10 13 13 18
25 28 27 21 17 17 22 27 24 21 23 22 27 28 31 31 30 34 35 36 37 37 38 38 27 30 22 25 24 21 19 18 16 15 14 16 18 15 14 15 13 16 14 12 12 14 15 18 16
19 18 22 21 12 20 23 30 25 24 25 29 29 28 23 20 17 23 31 33 34 36 36 38 34 29 33 27 30 24 21 22 18 17 15 15 17 16 15 15 13 16 12 13 15 12 13 12 15
15 16 25 28 34 34 29 30 25 31 26 27 21 19 18 18 16 18 18 28 34 34 39 41 39 30 32 31 29 30 27 24 20 19 16 16 17 16 16 15 13 16 12 11 11 11 15 18 15
32 30 30 30 34 31 29 31 39 39 42 44 32 27 25 22 20 22 19 18 22 31 34 38 43 38 34 32 34 34 31 26 25 21 17 16 17 17 16 16 13 11 11 12 12 13 14 16 20
25 24 25 29 33 36 34 38 41 37 31 37 31 34 34 34 32 26 28 23 20 24 31 38 42 45 40 38 35 37 38 29 27 23 20 17 19 17 15 17 13 10 14 14 13 14 16 17 17
22 24 26 33 34 36 35 28 36 36 29 33 32 32 31 34 33 32 33 35 30 22 26 31 41 46 44 39 38 36 37 34 27 24 22 18 16 17 16 16 11 11 13 11 12 14 15 16 17
25 27 31 38 38 33 29 35 35 31 27 30 33 33 32 32 31 32 33 30 31 32 28 26 37 45 46 39 39 37 38 37 32 27 23 20 17 16 15 16 10 11 10 11 15 16 18 19 17
26 31 34 37 40 38 36 33 32 25 26 31 34 38 42 43 45 43 43 43 35 31 28 29 29 39 45 41 40 39 39 40 33 30 23 20 18 17 15 14 10 9 11 8 9 12 17 18 16
26 28 34 40 44 40 29 28 27 27 30 33 38 41 45 48 48 49 48 47 41 28 26 28 31 35 44 44 44 42 42 41 35 30 24 21 18 17 16 15 11 12 10 7 9 11 17 17 19
34 28 40 41 13 14 20 35 34 24 33 38 43 48 51 54 46 44 41 42 41 43 28 27 28 37 43 45 47 45 44 42 40 31 25 21 19 17 15 15 10 7 9 8 10 13 15 16 17
33 34 31 26 28 30 40 35 23 28 35 40 50 56 59 55 48 43 42 47 48 47 39 28 31 32 44 46 48 48 45 43 41 32 27 21 19 17 16 13 9 8 7 8 9 11 13 14 15
34 21 22 26 32 38 37 22 29 21 38 46 53 58 57 54 49 47 45 47 45 48 42 45 35 35 43 47 48 48 45 44 40 33 28 23 19 17 15 12 9 6 6 6 7 9 11 13 15
23 26 26 22 22 23 25 26 20 40 46 52 57 59 57 49 45 45 45 45 47 43 45 47 31 36 42 44 46 47 47 44 39 33 28 22 18 17 14 11 7 5 4 4 5 8 10 13 15
14 19 22 24 26 26 31 34 37 45 49 54 60 57 55 48 46 48 44 19 30 15 36 48 26 38 39 38 43 45 45 42 37 31 27 22 19 16 12 9 6 4 3 3 4 7 10 12 14
9 21 26 25 20 27 32 33 34 43 51 56 59 52 53 51 48 40 33 25 19 23 35 16 29 37 35 30 40 46 48 42 38 34 24 21 18 14 11 8 5 3 2 4 5 7 10 12 14
19 29 28 24 27 29 32 31 36 47 51 54 56 51 53 48 46 44 42 32 8 15 23 12 27 30 32 30 40 44 48 40 34 30 23 19 17 13 11 7 5 3 1 2 5 7 10 12 15
Wind_Direction
257 237 249 264 299 298 287 283 278 277 300 304 299 295 309 316 312 296 326 330 354 41 73 100 99 98 107 111 114 117 106 96 96 96 93 91 81 76 75 67 57 58 58 60 57 50 48 45 41
277 274 342 289 299 293 290 303 291 276 317 308 307 296 294 335 359 346 340 337 339 37 49 92 105 103 115 125 140 144 129 110 104 104 103 92 82 74 64 63 62 58 56 55 51 50 46 40 33
303 297 298 299 292 290 286 270 303 312 317 303 296 302 297 306 333 326 339 336 327 20 21 91 125 117 128 153 184 158 148 138 122 120 108 101 82 65 53 54 49 47 53 49 45 41 43 40 36
322 323 303 284 277 287 284 277 299 298 315 318 303 293 310 321 312 327 326 325 331 10 16 98 127 129 131 154 207 191 171 165 158 136 131 109 93 51 35 35 36 33 30 28 23 23 30 35 29
322 300 299 292 286 281 276 278 316 297 295 297 309 293 306 322 328 316 319 326 321 315 348 57 178 213 142 152 203 204 189 174 172 169 157 151 293 350 2 20 32 28 18 23 18 20 31 31 30
320 317 299 294 293 297 303 312 301 303 297 295 301 297 311 344 326 325 317 315 311 304 320 317 284 231 172 169 172 195 204 195 183 186 185 214 255 308 339 356 0 7 12 16 23 27 27 27 26
316 302 295 292 289 285 312 314 305 300 299 296 304 289 299 325 344 319 310 309 313 300 276 293 281 244 206 188 179 186 208 210 207 202 217 224 248 277 306 322 330 343 354 6 8 17 29 31 29
319 297 290 291 290 292 300 316 317 303 291 290 301 296 287 290 316 311 303 303 301 296 261 275 281 253 236 229 197 204 213 216 219 219 223 232 245 262 281 296 305 319 334 340 353 5 21 30 51
326 305 301 302 303 304 316 312 318 321 299 298 292 291 291 284 300 296 294 291 294 290 290 274 283 258 245 248 241 213 226 223 223 228 226 233 257 261 270 282 296 306 317 331 349 359 22 61 73
326 312 311 326 318 315 313 313 310 306 299 294 291 290 289 285 290 286 285 281 281 286 275 272 265 256 244 250 245 239 233 230 234 234 235 246 256 256 264 273 275 300 310 321 337 351 20 47 36
329 310 307 318 321 319 315 312 313 307 301 301 296 297 290 288 285 283 282 278 276 277 281 262 261 251 242 246 241 239 242 238 237 236 238 248 252 247 260 273 286 294 301 309 331 342 11 22 23
314 316 313 316 319 316 313 314 310 308 305 305 301 299 296 289 283 280 278 278 274 273 279 262 254 252 244 249 237 242 238 241 240 242 241 244 253 238 259 269 281 286 299 314 325 353 18 9 344
313 314 315 319 318 317 316 311 311 310 311 310 307 302 295 292 287 282 276 275 273 273 276 280 250 252 242 246 242 246 240 238 240 237 235 242 252 242 255 269 276 287 284 323 315 326 342 338 349
315 315 319 319 319 320 316 316 318 317 318 314 311 307 302 296 291 286 280 272 270 268 270 277 262 248 241 245 244 242 241 237 235 233 229 235 251 250 259 269 276 271 293 302 326 322 329 336 335
328 324 324 320 323 330 326 317 314 320 323 319 318 313 304 299 295 290 285 279 269 268 266 263 269 254 248 244 252 243 244 240 236 236 225 226 246 253 256 266 267 283 289 300 310 324 325 325 337
326 326 326 351 358 336 330 317 322 322 318 317 314 317 317 311 305 302 292 284 277 266 266 261 266 252 251 244 246 247 245 247 239 243 232 225 242 248 254 260 264 277 286 296 307 318 326 335 339
334 309 327 325 323 322 319 316 320 312 314 305 313 310 302 301 294 300 296 290 282 273 263 260 261 255 246 245 242 248 247 242 246 246 237 225 240 245 250 258 262 277 282 299 306 318 322 327 332
331 328 325 324 323 322 320 317 298 293 282 279 313 313 311 304 302 296 289 284 287 278 266 260 256 260 248 245 244 245 245 244 250 246 243 228 242 246 247 260 258 271 280 294 304 314 320 322 329
335 330 326 325 323 320 319 312 284 270 318 316 324 318 315 314 313 309 302 293 283 280 272 260 256 254 258 248 240 239 244 243 243 244 245 230 243 245 244 257 255 260 279 288 299 308 318 324 334
333 328 327 323 324 321 318 309 265 294 326 324 321 323 322 317 313 308 300 293 293 279 274 267 255 253 255 246 243 241 240 246 240 243 243 232 234 243 241 253 250 260 277 286 296 306 313 320 331
332 331 329 320 317 320 319 314 306 325 332 332 331 329 326 328 326 318 307 304 293 287 275 267 260 253 253 244 243 242 241 242 241 244 238 232 234 237 235 255 248 258 271 283 293 299 304 316 330
333 329 324 320 316 314 309 316 313 333 333 329 325 317 315 306 304 306 302 300 298 288 280 268 259 255 252 245 241 239 238 237 240 242 234 232 236 239 234 248 244 253 273 279 295 304 306 309 322
334 332 325 312 284 287 314 316 313 330 329 328 330 328 322 314 308 302 301 299 298 286 276 268 261 256 251 244 240 239 239 238 239 239 231 233 237 237 236 239 248 260 272 293 300 312 313 317 322
328 333 312 305 261 323 329 307 311 327 326 327 326 322 322 319 317 307 309 307 300 290 271 263 258 256 248 242 239 237 237 236 235 233 226 229 234 234 230 233 242 245 276 294 303 311 318 325 330
330 332 336 341 331 317 297 308 324 327 330 330 325 320 318 315 316 312 311 305 296 287 286 257 254 251 245 240 238 235 234 234 231 231 226 228 231 231 227 224 232 259 274 293 308 318 327 333 336
332 2 355 340 329 315 300 321 321 344 332 329 328 329 327 319 317 316 315 310 297 282 273 273 249 246 243 237 235 233 231 233 230 229 224 230 231 230 222 225 237 248 273 302 320 333 336 341 340
351 347 346 347 347 342 326 315 331 328 327 326 325 334 333 334 329 324 318 312 268 279 265 278 240 238 240 234 232 231 229 229 224 226 221 225 226 227 215 219 220 246 276 293 330 336 342 346 343
5 1 355 354 346 341 300 299 317 318 327 325 328 334 334 338 336 320 320 322 260 248 280 257 230 232 234 232 230 228 225 224 220 221 218 216 220 207 204 205 216 235 264 310 332 342 346 355 356
31 1 350 345 352 321 290 314 336 335 330 331 332 335 336 333 335 313 302 290 249 230 237 253 237 230 227 227 227 225 222 218 215 218 216 215 198 193 190 196 207 209 219 308 338 354 350 357 355
9 347 349 354 338 282 305 315 335 334 334 339 336 343 341 329 327 327 325 309 207 151 199 238 229 227 224 233 228 225 227 213 211 213 200 188 185 185 184 192 197 204 279 40 355 359 356 356 358